Hourly Data Report for October 21, 2004

TORONTO CITY
ONTARIO

43°40'00.000" N
79°24'00.000" W
112.50 m
6158355
71508
XTO

Download Data

Hourly Data (October 2004)
Hourly Data Report for October 21, 2004
TIME
LST
Temp Definition
°C
Dew Point Definition
°C
Rel Hum Definition
%
Precip. Amount Definition
mm

Wind Dir Definition
10's deg

Wind Spd Definition
km/h
Visibility Definition
km
Stn Press Definition
kPa
Hmdx Definition


Wind Chill Definition


Weather Definition


00:00 7.7 7.3 97   LegendMM LegendMM LegendMM 100.42     LegendNANA
01:00 7.9 7.6 98   LegendMM LegendMM LegendMM 100.43     LegendNANA
02:00 7.9 7.6 98   LegendMM LegendMM LegendMM 100.46     LegendNANA
03:00 7.9 7.7 99   LegendMM LegendMM LegendMM 100.47     LegendNANA
04:00 7.8 7.5 98   LegendMM LegendMM LegendMM 100.49     LegendNANA
05:00 7.8 7.3 97   LegendMM LegendMM LegendMM 100.55     LegendNANA
06:00 7.8 7.0 95   LegendMM LegendMM LegendMM 100.60     LegendNANA
07:00 7.9 6.9 93   LegendMM LegendMM LegendMM 100.65     LegendNANA
08:00
09:00 8.6 6.9 89   LegendMM LegendMM LegendMM 100.71     LegendNANA
10:00 9.2 7.1 87   LegendMM LegendMM LegendMM 100.72     LegendNANA
11:00 9.6 7.0 84   LegendMM LegendMM LegendMM 100.72     LegendNANA
12:00 10.3 7.1 81   LegendMM LegendMM LegendMM 100.73     LegendNANA
13:00 10.4 7.3 81   LegendMM LegendMM LegendMM 100.71     LegendNANA
14:00 10.1 7.2 82   LegendMM LegendMM LegendMM 100.77     LegendNANA
15:00 9.6 7.0 84   LegendMM LegendMM LegendMM 100.79     LegendNANA
16:00 9.2 7.0 86   LegendMM LegendMM LegendMM 100.85     LegendNANA
17:00 8.8 7.2 90   LegendMM LegendMM LegendMM 100.90     LegendNANA
18:00 8.3 7.6 95   LegendMM LegendMM LegendMM 100.90     LegendNANA
19:00 8.2 7.4 95   LegendMM LegendMM LegendMM 100.95     LegendNANA
20:00 7.7 7.2 97   LegendMM LegendMM LegendMM 100.97     LegendNANA
21:00 7.6 7.0 96   LegendMM LegendMM LegendMM 100.99     LegendNANA
22:00 7.4 6.7 95   LegendMM LegendMM LegendMM 101.02     LegendNANA
23:00 7.5 6.2 91   LegendMM LegendMM LegendMM 100.99     LegendNANA

Notes on Data Quality.

Legend

  • E = Estimated
  • M = Missing
  • NA = Not Available*
  • [empty] = Indicates an unobserved value
Date modified: